Regional Weather Roundup
Issued by NWS

Home | Current Version | Previous Version | Graphics & Text | Print | Product List | Glossary On
Versions: 1 2 3 4 5 6 7 8 9 10 11 12 13 14 15 16 17 18 19 20 21 22 23 24 25 26 27 28 29 30 31 32 33 34 35 36 37 38 39 40 41 42 43 44 45 46 47 48 49 50
746
ASUS44 KLIX 312210
RWRLA
LOUISIANA WEATHER ROUNDUP
NATIONAL WEATHER SERVICE NEW ORLEANS LA
500 PM CDT SUN AUG 31 2014

NOTE: "FAIR" INDICATES FEW OR NO CLOUDS BELOW 12,000 FEET WITH NO
      SIGNIFICANT WEATHER AND/OR OBSTRUCTIONS TO VISIBILITY.
      SKY/WX - SKY CONDITION AND SIGNIFICANT WEATHER.
      TMP - AIR TEMPERATURE.    DP   - DEWPOINT TEMPERATURE.
      RH  - RELATIVE HUMIDITY.  PRES - PRESSURE.
      HX  - HEAT INDEX.         WCI  - WIND CHILL INDEX.

*  THESE STATIONS ARE NOT NWS OR FAA STATIONS AND ARE NOT UNDER
   NWS QUALITY CONTROL.

LAZ040-048-061>063-065-066-069-312300-
SOUTHEAST LOUISIANA

CITY           SKY/WX    TMP DP  RH WIND       PRES   REMARKS
N.O. AUDUBON     N/A     90  77  64 MISG        N/A  HX 102
N.O. INTL ARPT PTSUNNY   91  76  61 SE16      30.02F HX 103
N.O. LAKEFRONT SUNNY     90  73  57 SE15      30.03F HX  98
N.O. DOWNTOWN* FAIR      91  73  55 SE9G16    30.04S HX 100
SLIDELL        MOSUNNY   90  73  57 SE8       30.03F HX  98
BATON ROUGE    MOSUNNY   90  69  50 S9        30.01F
BOOTHVILLE     MOSUNNY   89  76  65 SE9       30.05S HX 100
BELLE CHASSE   PTSUNNY   90  75  61 E10       30.02S HX 100
BOGALUSA*      FAIR      91  69  47 S9        30.05S HX  96
GALLIANO*      NOT AVBL
NEW ROADS*     FAIR      90  74  57 S7        30.01F HX  99
GONZALES*      MOCLDY    91  76  61 SE7       30.01S HX 102
HAMMOND*       MOSUNNY   91  70  49 SE12      30.05S HX  97
HOUMA*         MOSUNNY   90  72  55 SE12      30.02F HX  96
PORT FOURCHON* NOT AVBL

$$

LAZ041-044-053-054-312300-
SOUTHWEST LOUISIANA

CITY           SKY/WX    TMP DP  RH WIND       PRES   REMARKS
LAKE CHARLES   PTSUNNY   82  73  74 S9        30.01R
LAFAYETTE      MOSUNNY   90  73  57 S15G21    30.01F HX  98
PATTERSON      PTSUNNY   90  75  62 SE9       30.05S HX 100
SALT POINT       N/A     91  78  65 SE8       30.01S HX 106
NEW IBERIA     MOSUNNY   89  76  65 S14       30.02S HX 100
CHENAULT AIRPK NOT AVBL

$$

LAZ027-028-312300-
CENTRAL LOUISIANA

CITY           SKY/WX    TMP DP  RH WIND       PRES   REMARKS
FORT POLK      CLOUDY    78  71  79 NW8       30.02R
ALEXANDRIA INT CLOUDY    87  75  67 S5        29.99S HX  96
ALEXANDRIA     CLOUDY    89  76  65 S6        30.01S HX 100

$$

LAZ001-002-312300-
NORTHWEST LOUISIANA

CITY           SKY/WX    TMP DP  RH WIND       PRES   REMARKS
SHREVEPORT     PTSUNNY   88  72  58 S15G23    29.96S
BARKSDALE AFB  MOSUNNY   88  71  56 S20       29.97R
DTN SHREVEPORT MOSUNNY   87  70  56 S22G28    29.96S

$$

LAZ014-016-312300-
NORTHEAST LOUISIANA

CITY           SKY/WX    TMP DP  RH WIND       PRES   REMARKS
MONROE         CLOUDY    85  76  74 S9        30.01F
TALLULAH       PTSUNNY   86  75  69 S8        30.02F HX  95

$$




USA.gov is the U.S. government's official web portal to all federal, state and local government web resources and services.